AirNav   Everest Fuels
 
 452 users online  

WS39 Pinewood Air Park
Goodnow, Wisconsin, USA

GOING TO GOODNOW?


FAA INFORMATION EFFECTIVE 25 MARCH 2021

Location

FAA Identifier: WS39
Lat/Long: 45-41-57.8440N 089-39-44.5090W
45-41.964067N 089-39.741817W
45.6994011,-89.6623636
(estimated)
Elevation: 1560 ft. / 475 m (estimated)
Variation: 00W (1985)
From city: 1 mile NE of GOODNOW, WI
Time zone: UTC -5 (UTC -6 during Standard Time)
Zip code: 54529

Airport Operations

Airport use: Private use. Permission required prior to landing
Activation date: 05/1987
Control tower: no
ARTCC: MINNEAPOLIS CENTER
FSS: GREEN BAY FLIGHT SERVICE STATION
Attendance: UNATNDD
Wind indicator: yes
Segmented circle: no

Airport Communications

WX ASOS at RHI (9 nm SE): 126.825 (715-362-7980)
WX AWOS-3 at ARV (14 nm N): 121.125 (715-356-2417)
WX AWOS-3 at TKV (15 nm SW): 118.250 (715-453-5716)

Nearby radio navigation aids

VOR radial/distance  VOR name  Freq  Var
RHIr293/9.4RHINELANDER VOR/DME109.2002E

 
NDB name  Hdg/Dist  Freq  Var  ID
ARSHA340/4.727203WRH .-. ....
DOUGY163/8.623602WDO -.. ---
WATERSMEET206/38.840702WRXW .-. -..- .--

Airport Services

Runway Information

Runway 15/33

Dimensions: 2933 x 70 ft. / 894 x 21 m
Surface: turf
RUNWAY 15  RUNWAY 33
Traffic pattern: leftleft
Displaced threshold: 800 ft.no

Airport Ownership and Management from official FAA records

Ownership: Privately-owned
Owner: A. H. BROMANN
4726 LAKEWOOD RD
GOODNOW, WI 54529
Phone 715-282-5501
Manager: A. H. BROMANN
4726 LAKEWOOD RD
GOODNOW, WI 54529
Phone 715-282-5501

Airport Operational Statistics

Aircraft based on the field: 2
Single engine airplanes: 2
    

Additional Remarks

AIRPORT PLOWED WINTER MONTHS.
FOR CD CTC MINNEAPOLIS ARTCC AT 651-463-5588.

Instrument Procedures

There are no published instrument procedures at WS39.

Some nearby airports with instrument procedures:

KRHI - Rhinelander-Oneida County Airport (9 nm SE)
KARV - Lakeland Airport/Noble F. Lee Memorial Field (14 nm N)
KTKV - Tomahawk Regional Airport (15 nm SW)
KEGV - Eagle River Union Airport (22 nm NE)
D25 - Manitowish Waters Airport (27 nm N)
 
Loc | Ops | Rwys | IFR | FBO | Links
Com | Nav | Svcs | Stats | Notes
Area around WS39 (Pinewood Air Park)
 
Road maps at: MapQuest Bing Google
 
Aerial photo
No photo
 
Sectional chart

 
Airport distance calculator
Flying to Pinewood Air Park? Find the distance to fly.

From to WS39

Sunrise and sunset
Times for 19-Apr-2021
 Local
(UTC-5)
 Zulu
(UTC)
Morning civil twilight05:3510:35
Sunrise06:0711:07
Sunset19:4900:49
Evening civil twilight20:2001:20

Current date and time
Zulu (UTC)  19-Apr-2021 09:39:00
Local (UTC-5)  19-Apr-2021 04:39:00
 
METAR
KRHI 
8nm SE 
190921Z AUTO 29007G17KT 2 1/2SM -SN BR SCT010 OVC016 00/M02 A2971 RMK AO2 P0000 T00001017
KARV 
13nm N 
190915Z AUTO 32012G18KT 10SM BKN016 OVC026 01/M04 A2971 RMK AO2 T00111037
KTKV 
15nm SW 
190915Z AUTO 29004KT 7SM SCT015 BKN027 OVC033 00/M02 A2974 RMK AO2 T10051020 PWINO
TAF
KRHI 
8nm SE 
190520Z 1906/2006 28011G19KT P6SM SCT014 BKN020 TEMPO 1906/1910 SCT008 BKN014 FM191000 32011G20KT P6SM OVC015 FM191600 32013G20KT P6SM -SHSN OVC024 FM191800 32011G20KT P6SM -SHSN OVC040 FM192300 33009G16KT P6SM BKN045 FM200100 33006KT P6SM SCT050
NOTAMs
Click for the latest NOTAMs
NOTAMs are issued by the DoD/FAA and will open in a separate window not controlled by AirNav.

 

 
 

Would you like to see your business listed on this page?

 If your business provides an interesting product or service to pilots, flight crews, aircraft, or users of the Pinewood Air Park, you should consider listing it here.  To start the listing process, click on the button below
 
Add a business
 

Other Pages about Pinewood Air Park

Update a link
 
Copyright © AirNav, LLC. All rights reserved. Privacy Policy  Contact